Location: Grantham
(50.0698°N, 112.0083°W)
Time: 01:01:23
(UTC+00:00)

ISS - Pass Details

Date: 01 December 2021
Orbit: 413 x 422 km, 51.6° (Epoch: 24 January)

Event Time Altitude Azimuth Distance (km) Brightness Sun altitude
Rises 02:06:49 0° 286° (WNW) 2,385 1.2 -24.4°
Reaches altitude 10° 02:08:56 10° 285° (WNW) 1,516 0.0 -24.8°
Enters shadow 02:10:59 34° 281° (W) 725 -2.1 -25.1°
